Measurement date,Total daily rainfall,Maximum daily air temperature,Minimum daily air temperature
Date ,Rainfall,Air temperature,Air temperature
Units: Year month day,Units: millimetre,Units: degree Celsius,Units: degree Celsius
2011-01-01,0.8,5.95,1.71
2011-01-02,0,1.68,-0.14
2011-01-03,0.2,2.08,-1.87
2011-01-04,2.4,4.71,0.37
2011-01-05,0.6,4.25,0.79
2011-01-06,0,3.61,-4.35
2011-01-07,1,1.35,-7.29
2011-01-08,0.2,1.92,-3.26
2011-01-09,0.6,4.18,0.42
2011-01-10,6.4,6.13,2.16
2011-01-11,0.4,5.53,2.86
2011-01-12,4.8,10.32,3.74
2011-01-13,2.8,10.77,9.17
2011-01-14,1.2,9.40,5.33
2011-01-15,4.2,11.82,7.20
2011-01-16,2.4,11.50,5.27
2011-01-17,0,6.72,1.88
2011-01-18,0.4,5.64,-0.02
2011-01-19,0.2,6.36,-2.73
2011-01-20,0,3.13,-5.60
2011-01-21,0.2,3.31,-5.25
2011-01-22,0.2,1.36,-3.05
2011-01-23,0,3.96,-4.31
2011-01-24,0.4,5.96,1.70
2011-01-25,3,7.38,5.98
2011-01-26,0,5.97,-0.69
2011-01-27,1,4.16,0.31
2011-01-28,0,3.59,-1.28
2011-01-29,0,2.85,-1.47
2011-01-30,0,2.93,0.42
2011-01-31,1.4,7.14,1.72
2011-02-01,0.4,8.98,4.74
2011-02-02,1.4,11.72,3.26
2011-02-03,4.6,9.11,1.40
2011-02-04,2.6,12.75,4.79
2011-02-05,7.4,8.43,4.99
2011-02-06,14.2,5.39,4.49
2011-02-07,17.8,9.86,1.36
2011-02-08,1.4,6.84,0.42
2011-02-09,11.4,9.92,7.49
2011-02-10,0.8,8.19,0.91
2011-02-11,5,8.30,4.05
2011-02-12,0.4,7.30,-0.14
2011-02-13,9.6,8.26,1.32
2011-02-14,3.2,6.02,-0.58
2011-02-15,9,5.76,0.49
2011-02-16,0.8,8.57,3.09
2011-02-17,2.2,8.99,1.04
2011-02-18,1.6,7.51,1.31
2011-02-19,3.2,10.57,5.04
2011-02-20,0.4,7.04,5.42
2011-02-21,2.8,9.16,5.32
2011-02-22,2.2,9.70,3.36
2011-02-23,1,12.84,8.82
2011-02-24,0.4,12.41,9.33
2011-02-25,0,12.03,7.75
2011-02-26,0.2,8.56,2.85
2011-02-27,3.8,8.30,1.77
2011-02-28,0.8,9.32,-1.98
2011-03-01,0,10.90,1.39
2011-03-02,0,8.53,-1.73
2011-03-03,0.2,9.70,-3.25
2011-03-04,0,8.12,1.50
2011-03-05,0,9.34,3.53
2011-03-06,0,6.35,2.29
2011-03-07,0,9.86,2.46
2011-03-08,0.2,8.66,1.76
2011-03-09,2.8,9.00,2.76
2011-03-10,1.6,8.03,2.40
2011-03-11,9.8,5.06,0.29
2011-03-12,14,5.99,0.17
2011-03-13,2.4,4.83,1.22
2011-03-14,8.4,7.71,1.46
2011-03-15,2,8.52,2.29
2011-03-16,0.6,10.51,-2.66
2011-03-17,0.8,7.87,-1.54
2011-03-18,0,9.75,-2.82
2011-03-19,0.8,9.84,-0.39
2011-03-20,0.8,12.56,6.10
2011-03-21,1,13.05,7.15
2011-03-22,0,13.77,6.23
2011-03-23,0,15.38,3.76
2011-03-24,0,15.06,0.05
2011-03-25,0.2,9.68,-1.71
2011-03-26,0,10.99,-1.83
2011-03-27,0,10.44,-1.81
2011-03-28,0,11.38,-1.59
2011-03-29,0,8.46,0.78
2011-03-30,0.8,13.91,7.97
2011-03-31,2.4,14.40,8.91
2011-04-01,0.2,14.11,10.78
2011-04-02,2.4,12.89,5.13
2011-04-03,0.2,11.56,4.97
2011-04-04,1.8,14.94,4.69
2011-04-05,1.8,15.28,11.00
2011-04-06,5.2,17.27,11.62
2011-04-07,0.4,14.15,5.80
2011-04-08,0,17.77,4.32
2011-04-09,0,17.38,6.22
2011-04-10,0,19.79,7.65
2011-04-11,2.2,11.33,3.99
2011-04-12,0.2,11.78,2.60
2011-04-13,5.4,11.49,5.17
2011-04-14,0.2,12.31,7.73
2011-04-15,0.2,13.75,8.44
2011-04-16,0.4,10.89,5.98
2011-04-17,0,14.13,4.04
2011-04-18,0,14.84,0.73
2011-04-19,0,17.37,2.93
2011-04-20,0.4,17.45,2.82
2011-04-21,0.2,18.12,8.68
2011-04-22,0,17.50,9.25
2011-04-23,0,14.51,5.95
2011-04-24,0,13.83,4.97
2011-04-25,0,13.07,5.07
2011-04-26,0,12.51,6.36
2011-04-27,0,13.25,3.13
2011-04-28,0,16.02,1.15
2011-04-29,0,16.98,2.78
2011-04-30,0,17.21,8.04
2011-05-01,0,17.55,6.33
2011-05-02,0,15.12,4.43
2011-05-03,0,11.59,6.24
2011-05-04,0,12.96,6.95
2011-05-05,2,12.68,9.58
2011-05-06,2.6,16.08,11.26
2011-05-07,8.4,15.73,10.88
2011-05-08,5.2,14.95,10.84
2011-05-09,0,14.78,10.73
2011-05-10,1.6,15.17,9.58
2011-05-11,1.6,14.04,8.02
2011-05-12,2,13.54,7.98
2011-05-13,2,12.04,6.74
2011-05-14,4,11.45,7.02
2011-05-15,2.4,14.25,6.63
2011-05-16,0.4,13.30,11.12
2011-05-17,0.8,16.10,10.76
2011-05-18,0.6,13.13,6.87
2011-05-19,0,12.88,5.00
2011-05-20,2.6,13.11,6.74
2011-05-21,6.2,13.71,7.34
2011-05-22,2.8,13.41,6.87
2011-05-23,7,12.52,6.46
2011-05-24,1.2,12.63,5.31
2011-05-25,1,12.64,7.55
2011-05-26,2.4,11.44,7.61
2011-05-27,0.6,11.89,6.32
2011-05-28,1.2,12.40,8.80
2011-05-29,0.8,14.09,8.55
2011-05-30,2,12.73,5.16
2011-05-31,0.6,14.37,4.63
2011-06-01,0,18.89,10.96
2011-06-02,0,21.04,11.94
2011-06-03,0,23.92,7.64
2011-06-04,0,17.07,8.69
2011-06-05,8.6,11.66,7.87
2011-06-06,0.6,12.51,4.67
2011-06-07,6.4,13.34,7.32
2011-06-08,1,12.70,7.42
2011-06-09,1.6,11.29,5.08
2011-06-10,0.2,13.97,2.81
2011-06-11,0.8,13.93,6.11
2011-06-12,7.8,12.27,2.54
2011-06-13,1.2,14.71,8.88
2011-06-14,0,16.16,4.50
2011-06-15,0.2,17.55,10.34
2011-06-16,2.2,15.00,7.52
2011-06-17,15,13.45,6.79
2011-06-18,4,15.86,5.39
2011-06-19,0.2,15.44,8.78
2011-06-20,0.2,15.88,4.79
2011-06-21,8.8,15.09,10.01
2011-06-22,0.2,16.21,10.37
2011-06-23,8.6,14.95,7.79
2011-06-24,5,13.06,6.05
2011-06-25,1.8,19.98,10.61
2011-06-26,0,21.29,13.37
2011-06-27,0,15.74,7.97
2011-06-28,0,16.64,4.06
2011-06-29,0.2,15.47,7.52
2011-06-30,0.4,15.37,8.98
2011-07-01,0,17.21,4.54
2011-07-02,0.2,17.70,5.00
2011-07-03,0,20.03,7.33
2011-07-04,0,19.40,9.30
2011-07-05,9,18.63,12.30
2011-07-06,4.8,17.54,9.31
2011-07-07,5.2,15.72,6.83
2011-07-08,0.4,16.66,10.72
2011-07-09,0,18.61,11.10
2011-07-10,1.2,17.34,10.48
2011-07-11,0,18.23,9.79
2011-07-12,0,18.36,7.82
2011-07-13,0,19.42,6.58
2011-07-14,0,20.75,10.29
2011-07-15,1.2,17.16,12.98
2011-07-16,5.8,16.41,11.82
2011-07-17,21,13.58,11.11
2011-07-18,3.2,13.68,11.73
2011-07-19,1,14.20,10.88
2011-07-20,0.2,13.36,9.02
2011-07-21,0.8,14.46,10.55
2011-07-22,0,17.15,8.10
2011-07-23,0,17.94,5.67
2011-07-24,0,19.08,8.66
2011-07-25,0,18.04,9.20
2011-07-26,0,20.71,9.87
2011-07-27,5,23.26,6.41
2011-07-28,2.4,15.77,12.32
2011-07-29,0,18.03,8.62
2011-07-30,0,19.07,6.63
2011-07-31,2.8,18.19,13.82
2011-08-01,0.4,17.97,13.44
2011-08-02,0,18.43,12.77
2011-08-03,0.2,17.95,7.24
2011-08-04,2.8,20.57,13.63
2011-08-05,0,16.33,9.96
2011-08-06,3.2,14.93,7.62
2011-08-07,2.8,16.26,8.23
2011-08-08,0.4,15.27,10.30
2011-08-09,0,16.57,10.08
2011-08-10,8.6,18.09,11.34
2011-08-11,11.2,17.94,13.54
2011-08-12,5.6,17.27,13.60
2011-08-13,2.2,17.71,12.69
2011-08-14,7.4,15.76,10.50
2011-08-15,3,17.38,9.64
2011-08-16,0.2,16.38,9.85
2011-08-17,0,16.38,6.59
2011-08-18,0,16.53,6.42
2011-08-19,0.6,14.75,3.99
2011-08-20,0,18.45,10.26
2011-08-21,0.2,17.16,11.07
2011-08-22,0,17.31,9.29
2011-08-23,0,17.86,4.94
2011-08-24,2.6,17.54,7.77
2011-08-25,4,15.01,7.02
2011-08-26,1.6,16.70,9.32
2011-08-27,0.4,17.57,9.58
2011-08-28,0.4,13.66,9.34
2011-08-29,0.2,13.66,8.81
2011-08-30,0,14.47,9.80
2011-08-31,0,14.67,10.33
2011-09-01,0,17.10,6.47
2011-09-02,5.4,16.79,12.94
2011-09-03,5.6,16.26,10.13
2011-09-04,10.6,13.74,7.91
2011-09-05,7.2,15.69,7.24
2011-09-06,3.4,14.85,10.36
2011-09-07,6.6,13.72,9.81
2011-09-08,1,16.02,9.94
2011-09-09,0.4,20.71,11.83
2011-09-10,1.6,19.07,13.47
2011-09-11,12.6,14.35,11.01
2011-09-12,2.4,16.16,11.83
2011-09-13,0.2,13.71,10.18
2011-09-14,1.6,14.08,5.17
2011-09-15,0.2,13.63,5.43
2011-09-16,10,14.82,11.75
2011-09-17,3.8,14.41,10.04
2011-09-18,8,15.24,9.86
2011-09-19,5.8,15.95,9.48
2011-09-20,1.4,14.79,8.46
2011-09-21,3.4,13.19,9.06
2011-09-22,0,14.95,8.23
2011-09-23,1.4,16.00,11.25
2011-09-24,0.4,16.69,11.26
2011-09-25,3.6,15.43,10.87
2011-09-26,0.2,15.00,6.94
2011-09-27,0,18.85,12.57
2011-09-28,0,21.21,12.08
2011-09-29,0.2,19.78,14.44
2011-09-30,19.4,20.31,13.75
2011-10-01,10.4,13.57,11.61
2011-10-02,19.6,14.46,11.31
2011-10-03,1.2,17.85,8.59
2011-10-04,0,12.59,8.55
2011-10-05,2,15.75,8.42
2011-10-06,5.2,9.56,6.04
2011-10-07,2,12.23,8.15
2011-10-08,0.6,16.57,8.44
2011-10-09,7.2,15.93,14.05
2011-10-10,22.4,14.71,11.80
2011-10-11,14.4,13.29,9.92
2011-10-12,5.4,15.57,10.47
2011-10-13,0.4,15.30,6.97
2011-10-14,0.4,15.43,9.65
2011-10-15,4.8,13.94,10.14
2011-10-16,0.2,12.80,7.63
2011-10-17,14.2,11.69,4.19
2011-10-18,1.4,9.70,4.16
2011-10-19,1.2,8.08,2.52
2011-10-20,6,9.37,2.40
2011-10-21,1.2,12.94,9.67
2011-10-22,2.6,12.32,8.75
2011-10-23,26.6,14.44,8.31
2011-10-24,31.8,14.21,11.78
2011-10-25,0.2,12.03,6.01
2011-10-26,0.2,10.77,3.96
2011-10-27,0.8,11.26,6.01
2011-10-28,0.2,11.70,4.54
2011-10-29,6.6,14.54,10.69
2011-10-30,0.2,15.18,10.86
2011-10-31,4.4,15.51,9.91
2011-11-01,0,11.58,5.61
2011-11-02,3.2,13.30,11.30
2011-11-03,8.8,14.02,11.14
2011-11-04,0.2,12.05,3.93
2011-11-05,0.4,9.21,0.86
2011-11-06,0,11.11,-1.25
2011-11-07,0.2,9.95,-1.26
2011-11-08,1.8,10.54,8.95
2011-11-09,7.2,12.62,10.03
2011-11-10,0.2,13.74,9.55
2011-11-11,9,12.61,11.02
2011-11-12,0.2,12.29,7.40
2011-11-13,0,12.90,10.41
2011-11-14,0,11.51,7.71
2011-11-15,0,9.66,7.70
2011-11-16,9.2,10.17,6.34
2011-11-17,13.2,12.62,6.17
2011-11-18,1,13.50,12.31
2011-11-19,0.6,13.57,11.40
2011-11-20,0.8,12.98,10.13
2011-11-21,2,11.90,6.53
2011-11-22,0.2,8.93,1.92
2011-11-23,1.2,11.70,8.25
2011-11-24,10.6,11.80,7.31
2011-11-25,4.4,7.21,3.96
2011-11-26,3.8,12.61,6.72
2011-11-27,3,11.99,4.24
2011-11-28,5.2,12.11,4.61
2011-11-29,18.6,11.96,3.50
2011-11-30,2.4,9.50,3.33
2011-12-01,2,6.45,1.67
2011-12-02,0.8,9.20,0.92
2011-12-03,1.4,8.20,4.39
2011-12-04,1.8,4.13,0.41
2011-12-05,3.8,2.42,0.43
2011-12-06,9.2,5.61,0.75
2011-12-07,3.8,5.07,2.12
2011-12-08,5.6,9.82,2.69
2011-12-09,0.2,3.11,0.31
2011-12-10,0.4,5.72,0.05
2011-12-11,2.6,6.16,0.81
2011-12-12,5,7.39,1.67
2011-12-13,0.2,4.90,1.23
2011-12-14,2.6,4.04,-1.39
2011-12-15,0.2,4.31,-0.51
2011-12-16,0.2,2.06,-1.01
2011-12-17,0.4,2.78,0.10
2011-12-18,0.4,3.53,-0.09
2011-12-19,8,8.30,2.21
2011-12-20,2.8,7.09,3.51
2011-12-21,0.2,11.14,7.57
2011-12-22,0,11.38,9.81
2011-12-23,4,10.71,1.53
2011-12-24,1.6,9.90,2.34
2011-12-25,0.2,13.10,10.00
2011-12-26,0.6,12.57,9.82
2011-12-27,2.4,9.33,6.00
2011-12-28,8.4,8.48,3.91
2011-12-29,10,6.86,3.66
2011-12-30,6,10.76,3.63
2011-12-31,2.6,11.80,8.44
2012-01-01,3,8.49,1.79
2012-01-02,0.8,4.39,0.76
2012-01-03,16,11.14,2.51
2012-01-04,10,9.63,3.28
2012-01-05,3,8.91,4.95
2012-01-06,2.4,9.80,3.81
2012-01-07,0,7.69,5.68
2012-01-08,0.8,10.36,6.78
2012-01-09,0.4,9.24,4.89
2012-01-10,1.2,9.95,5.24
2012-01-11,0.2,10.67,8.45
2012-01-12,0.2,10.66,2.33
2012-01-13,0.2,8.44,-1.45
2012-01-14,0,6.02,-1.10
2012-01-15,0,5.75,1.20
2012-01-16,0,5.61,-1.46
2012-01-17,0,9.44,5.30
2012-01-18,1.2,10.49,5.85
2012-01-19,0.8,6.11,2.43
2012-01-20,11.6,9.99,3.44
2012-01-21,2.6,9.79,4.64
2012-01-22,0.8,8.36,4.54
2012-01-23,0,6.58,2.09
2012-01-24,6.4,10.35,3.92
2012-01-25,7.4,10.25,1.72
2012-01-26,2,3.60,1.28
2012-01-27,2.6,5.75,-1.44
2012-01-28,0.4,5.05,-1.67
2012-01-29,9.8,6.65,3.09
2012-01-30,2.4,3.97,2.56
2012-01-31,0,2.85,1.01
2012-02-01,0,2.96,-0.82
2012-02-02,0,2.86,-3.95
2012-02-03,0.2,4.38,-5.09
2012-02-04,7.6,7.15,2.45
2012-02-05,0.6,6.63,2.25
2012-02-06,0.2,8.67,1.10
2012-02-07,0.2,6.42,-0.67
2012-02-08,1.8,4.66,3.24
2012-02-09,18.8,8.86,4.80
2012-02-10,1.6,8.36,4.48
2012-02-11,6,7.50,5.26
2012-02-12,0,6.98,5.21
2012-02-13,1.4,7.79,4.49
2012-02-14,0.2,7.79,5.41
2012-02-15,0.2,8.95,6.46
2012-02-16,1.8,9.76,6.42
2012-02-17,1.2,10.90,5.43
2012-02-18,4.2,8.20,1.01
2012-02-19,0.2,6.38,-0.02
2012-02-20,4,9.04,2.67
2012-02-21,0.2,11.64,8.51
2012-02-22,5,12.96,10.05
2012-02-23,0.6,12.80,10.37
2012-02-24,2.2,10.40,6.11
2012-02-25,0,8.30,5.38
2012-02-26,2.4,9.54,5.78
2012-02-27,2.2,11.28,9.34
2012-02-28,0,12.10,9.58
2012-02-29,0,12.22,8.21
2012-03-01,0,12.30,4.68
2012-03-02,0.2,10.64,1.38
2012-03-03,3.6,9.67,3.51
2012-03-04,0.4,6.35,-0.12
2012-03-05,0.2,8.11,1.09
2012-03-06,1.4,10.02,1.49
2012-03-07,5.4,10.55,2.69
2012-03-08,0,10.95,2.90
2012-03-09,2.8,12.99,8.72
2012-03-10,1.4,12.53,9.68
2012-03-11,0,9.65,7.42
2012-03-12,0.2,9.09,6.95
2012-03-13,0,9.26,6.93
2012-03-14,0,8.51,6.10
2012-03-15,0,10.96,5.75
2012-03-16,6,10.38,4.63
2012-03-17,0.2,9.76,-0.81
2012-03-18,0.2,9.96,0.38
2012-03-19,0.2,11.36,2.31
2012-03-20,0,11.61,8.88
2012-03-21,0,10.49,7.29
2012-03-22,0,10.91,2.91
2012-03-23,0.4,12.73,7.70
2012-03-24,0,15.08,5.43
2012-03-25,0,18.13,8.37
2012-03-26,0,16.45,3.49
2012-03-27,0,18.26,1.46
2012-03-28,0,18.72,0.95
2012-03-29,0,13.61,3.70
2012-03-30,0,10.10,7.84
2012-03-31,0,11.80,2.90
2012-04-01,0.2,9.87,0.03
2012-04-02,1.4,10.19,6.37
2012-04-03,4.6,7.04,2.33
2012-04-04,0,7.10,2.91
2012-04-05,0,10.33,-3.24
2012-04-06,0,10.09,4.71
2012-04-07,1,10.87,7.42
2012-04-08,2.8,9.85,5.95
2012-04-09,3.4,9.67,4.08
2012-04-10,3.6,8.47,2.08
2012-04-11,2,10.04,1.17
2012-04-12,0,10.24,-0.47
2012-04-13,5,8.78,-0.53
2012-04-14,0,9.21,-1.27
2012-04-15,0,8.83,-0.66
2012-04-16,4,9.57,2.52
2012-04-17,7,10.30,4.45
2012-04-18,4.2,11.31,3.45
2012-04-19,0.6,11.54,1.04
2012-04-20,3.4,12.17,-0.67
2012-04-21,5.8,8.91,2.34
2012-04-22,2,10.58,3.47
2012-04-23,1.8,10.93,3.98
2012-04-24,11.6,10.11,0.24
2012-04-25,6,9.84,1.72
2012-04-26,2.6,9.99,6.45
2012-04-27,0.2,8.53,1.65
2012-04-28,0,9.67,1.37
2012-04-29,3.6,8.15,1.76
2012-04-30,0.4,14.19,4.60
2012-05-01,0.2,11.34,7.99
2012-05-02,0,13.78,5.59
2012-05-03,0,17.09,6.02
2012-05-04,2,10.59,5.02
2012-05-05,0,7.85,0.65
2012-05-06,0,10.19,-1.73
2012-05-07,7,10.21,1.62
2012-05-08,0,10.26,2.15
2012-05-09,0.4,11.62,-1.70
2012-05-10,8,8.08,6.14
2012-05-11,1.6,10.41,4.45
2012-05-12,0,12.98,2.05
2012-05-13,1,11.99,4.63
2012-05-14,4.4,10.52,4.29
2012-05-15,0.4,10.59,1.79
2012-05-16,0.4,10.64,2.32
2012-05-17,7.2,9.15,5.68
2012-05-18,0.8,10.14,3.56
2012-05-19,1,10.83,2.70
2012-05-20,0,13.21,2.96
2012-05-21,0,16.46,2.77
2012-05-22,0,18.90,6.63
2012-05-23,0,20.77,9.25
2012-05-24,0,23.36,8.39
2012-05-25,0,23.31,10.78
2012-05-26,0,22.76,12.39
2012-05-27,0,22.71,8.71
2012-05-28,0,22.38,11.84
2012-05-29,0,20.22,10.34
2012-05-30,0.6,19.09,12.41
2012-05-31,6.8,19.25,12.12
2012-06-01,0.2,17.70,9.66
2012-06-02,0.6,15.04,3.83
2012-06-03,0.8,11.57,7.74
2012-06-04,0,13.88,1.30
2012-06-05,4,11.23,7.07
2012-06-06,2,15.97,7.18
2012-06-07,29.4,12.87,6.45
2012-06-08,14.8,13.04,10.51
2012-06-09,0.2,13.35,7.76
2012-06-10,0,17.20,3.77
2012-06-11,12.8,16.33,5.19
2012-06-12,16.8,13.22,9.21
2012-06-13,3.2,12.97,9.01
2012-06-14,8.4,14.85,9.50
2012-06-15,26,11.72,9.07
2012-06-16,1.6,15.08,9.72
2012-06-17,0,14.20,7.70
2012-06-18,7.8,14.72,3.90
2012-06-19,0,15.79,5.60
2012-06-20,0,16.70,10.35
2012-06-21,6.8,12.86,10.20
2012-06-22,36.4,11.71,10.31
2012-06-23,2.2,15.10,9.87
2012-06-24,0.2,15.77,10.21
2012-06-25,0,14.79,9.47
2012-06-26,0.4,18.50,8.83
2012-06-27,4,22.33,15.35
2012-06-28,9.8,19.96,13.29
2012-06-29,4,19.01,13.00
2012-06-30,1.2,14.43,10.70
2012-07-01,0.8,16.02,10.70
2012-07-02,0.6,17.13,12.66
2012-07-03,2.4,16.25,12.39
2012-07-04,1.2,17.84,12.14
2012-07-05,6.6,19.56,9.77
2012-07-06,5,18.11,14.77
2012-07-07,13.8,17.80,13.16
2012-07-08,5.6,13.58,10.75
2012-07-09,2.8,15.19,9.95
2012-07-10,1.2,14.83,9.71
2012-07-11,0.8,14.45,6.95
2012-07-12,0,16.74,6.00
2012-07-13,0,18.11,8.63
2012-07-14,0,14.36,8.23
2012-07-15,0,16.04,7.27
2012-07-16,0.6,19.98,12.02
2012-07-17,5.4,17.12,11.71
2012-07-18,9.6,17.15,12.16
2012-07-19,2,14.28,10.27
2012-07-20,0,15.85,10.18
2012-07-21,0,18.01,4.88
2012-07-22,0.2,20.40,12.64
2012-07-23,18.6,17.81,13.80
2012-07-24,5.8,20.30,13.06
2012-07-25,0,18.53,9.48
2012-07-26,0,20.29,6.68
2012-07-27,0.2,15.95,11.10
2012-07-28,7.6,14.68,9.01
2012-07-29,3.6,14.28,9.66
2012-07-30,0.8,15.51,8.21
2012-07-31,5.8,15.09,8.42
2012-08-01,1.8,18.10,12.24
2012-08-02,0,18.79,10.65
2012-08-03,2.4,15.59,12.23
2012-08-04,0.4,18.86,12.64
2012-08-05,2.4,16.35,12.51
2012-08-06,0.2,15.64,11.18
2012-08-07,0.6,18.70,11.45
2012-08-08,0,20.38,10.58
2012-08-09,0,20.91,11.16
2012-08-10,0,21.46,13.12
2012-08-11,0,18.49,12.43
2012-08-12,5.4,15.81,14.29
2012-08-13,3.4,21.20,14.38
2012-08-14,0,20.87,14.49
2012-08-15,12,19.35,13.66
2012-08-16,7.6,19.94,14.32
2012-08-17,4.8,20.62,14.34
2012-08-18,0,21.21,16.38
2012-08-19,0,17.86,13.30
2012-08-20,0,21.28,12.33
2012-08-21,5.6,17.89,12.48
2012-08-22,4.6,17.92,11.66
2012-08-23,2.2,16.28,11.96
2012-08-24,2.8,16.67,11.56
2012-08-25,0.2,16.89,11.94
2012-08-26,0.2,17.57,8.46
2012-08-27,9.2,18.64,12.93
2012-08-28,0,16.81,10.71
2012-08-29,10.6,17.09,9.60
2012-08-30,0,15.29,6.32
2012-08-31,1.8,15.16,6.10
2012-09-01,0.6,18.58,12.55
2012-09-02,0,18.04,11.90
2012-09-03,0,19.90,10.67
2012-09-04,0.4,17.38,10.42
2012-09-05,0,17.26,9.34
2012-09-06,0,17.28,10.37
2012-09-07,0,20.63,14.47
2012-09-08,0.2,20.02,11.56
2012-09-09,3.8,18.94,8.50
2012-09-10,6,14.99,7.61
2012-09-11,5,11.89,6.43
2012-09-12,9.8,13.08,7.48
2012-09-13,0,17.19,7.17
2012-09-14,2.8,13.67,10.79
2012-09-15,0.2,14.28,10.48
2012-09-16,3,15.37,8.74
2012-09-17,0.8,13.51,8.30
2012-09-18,4.4,10.96,6.09
2012-09-19,0,13.67,5.93
2012-09-20,8,14.26,9.26
2012-09-21,0,12.23,2.47
2012-09-22,0,12.61,0.00
2012-09-23,0,12.89,3.49
2012-09-24,32,9.88,7.98
2012-09-25,14.2,11.56,8.33
2012-09-26,4,15.10,9.70
2012-09-27,0.8,12.44,8.32
2012-09-28,4,12.59,7.04
2012-09-29,0.4,13.18,6.80
2012-09-30,5,15.27,10.66
2012-10-01,2.4,12.83,8.30
2012-10-02,3.6,12.96,6.79
2012-10-03,4.8,11.35,5.15
2012-10-04,5,12.41,3.80
2012-10-05,3.2,11.71,3.87
2012-10-06,0,12.69,4.53
2012-10-07,0,12.37,2.84
2012-10-08,0,11.71,3.06
2012-10-09,0,11.59,0.05
2012-10-10,0.4,12.94,0.74
2012-10-11,25.2,12.75,8.21
2012-10-12,0,10.89,3.90
2012-10-13,0.8,11.17,2.56
2012-10-14,6.2,9.77,6.31
2012-10-15,3.2,10.57,2.98
2012-10-16,7,9.22,2.00
2012-10-17,16.4,11.36,4.29
2012-10-18,20.2,13.11,7.38
2012-10-19,0.2,11.99,6.25
2012-10-20,0.4,14.15,7.73
2012-10-21,0,13.55,5.05
2012-10-22,1,10.64,5.27
2012-10-23,0,12.68,10.10
2012-10-24,0.2,12.47,10.27
2012-10-25,0,11.26,4.40
2012-10-26,0,6.54,0.46
2012-10-27,1.2,8.22,-2.51
2012-10-28,3,8.35,5.77
2012-10-29,0.2,9.83,3.61
2012-10-30,1.2,8.30,2.65
2012-10-31,5.8,7.27,1.57
2012-11-01,1.6,6.43,1.65
2012-11-02,1.4,6.10,2.22
2012-11-03,0.2,6.50,0.42
2012-11-04,1.8,8.36,4.00
2012-11-05,0.2,8.46,-1.67
2012-11-06,0,9.69,3.12
2012-11-07,1,10.46,7.55
2012-11-08,0.2,9.42,6.23
2012-11-09,3.4,8.99,5.11
2012-11-10,0.8,7.13,2.00
2012-11-11,0.6,8.40,1.65
2012-11-12,5.4,12.36,5.83
2012-11-13,7.8,13.24,9.89
2012-11-14,5.4,10.56,8.65
2012-11-15,0.2,10.38,6.61
2012-11-16,1,7.23,3.82
2012-11-17,1.6,6.69,2.11
2012-11-18,8.8,8.28,1.11
2012-11-19,8.4,12.91,8.57
2012-11-20,0.6,11.90,6.00
2012-11-21,0.2,9.66,3.79
2012-11-22,17.2,10.49,5.43
2012-11-23,0.2,6.19,2.06
2012-11-24,2.8,4.96,0.42
2012-11-25,2.6,5.59,-0.60
2012-11-26,0,7.31,4.72
2012-11-27,0,7.13,-0.09
2012-11-28,0.2,5.87,-2.11
2012-11-29,0.2,4.59,-0.40
2012-11-30,0,4.73,-2.43
2012-12-01,0.2,5.31,-0.18
2012-12-02,9.8,6.93,-2.34
2012-12-03,0.4,7.02,2.02
2012-12-04,0.6,4.16,1.93
2012-12-05,1,3.20,-2.63
2012-12-06,10.8,4.88,0.28
2012-12-07,2,7.18,0.57
2012-12-08,0.2,7.43,-2.73
2012-12-09,0.4,7.65,0.95
2012-12-10,0.2,5.36,-3.70
2012-12-11,0,5.76,-4.82
2012-12-12,3.8,4.79,-3.07
2012-12-13,1.4,4.62,1.96
2012-12-14,15.6,5.52,2.09
2012-12-15,0.2,7.35,4.05
2012-12-16,2,8.18,3.59
2012-12-17,1.8,5.98,3.49
2012-12-18,0.2,6.71,-2.40
2012-12-19,4.8,8.20,5.93
2012-12-20,13,7.70,4.13
2012-12-21,0.4,7.50,2.75
2012-12-22,9.6,12.34,7.49
2012-12-23,0,12.32,6.34
2012-12-24,0.2,7.98,4.43
2012-12-25,1,6.69,3.67
2012-12-26,11.2,6.07,3.42
2012-12-27,0.6,5.93,3.48
2012-12-28,3.4,11.71,5.19
2012-12-29,4.4,10.92,2.18
2012-12-30,2,10.04,1.50
2012-12-31,2.8,9.96,2.53
